Location: Linz
(48.3300°N, 14.3000°E)
Time: 11:53:04
(UTC+02:00)

Vanguard 2 Rocket - Visible Passes

Search period start: 25 April 2018 00:00
Search period end: 05 May 2018 00:00
Orbit: 553 x 3328 km, 32.9° (Epoch: 24 April)

Date Brightness Start Highest point End Pass type
(mag) Time Alt. Az. Time Alt. Az. Time Alt. Az.
25 Apr 10.2 02:12:16 13° SSE 02:17:21 16° SE 02:26:26 10° E visible
25 Apr 10.0 04:18:03 14° SSW 04:30:42 37° SSE 04:47:54 10° E visible
26 Apr 9.9 03:21:38 19° S 03:30:09 30° SE 03:45:30 10° E visible
27 Apr 9.9 02:25:12 19° SSE 02:30:07 22° SE 02:42:18 10° E visible
27 Apr 9.9 04:30:59 13° SW 04:43:58 42° SSE 05:01:56 10° E visible
28 Apr 10.1 01:28:45 14° SE 01:30:32 14° SE 01:37:32 10° ESE visible
28 Apr 9.7 03:34:31 20° SSW 03:43:15 36° SSE 03:59:47 10° E visible
29 Apr 9.6 02:38:03 23° S 02:43:02 28° SE 02:57:04 10° E visible
29 Apr 9.8 04:43:49 11° SW 04:57:23 46° SSE 05:15:46 10° ESE visible
30 Apr 9.8 01:41:34 19° SE 01:43:20 20° SE 01:53:37 10° E visible
30 Apr 9.5 03:47:20 20° SSW 03:56:33 40° SSE 04:13:45 10° E visible
01 May 10.1 00:45:04 12° ESE 00:45:04 12° ESE 00:48:09 10° ESE visible
01 May 9.4 02:50:50 26° S 02:56:11 34° SSE 03:11:19 10° E visible
01 May 9.8 04:57:07 10° WSW 05:10:55 47° S 05:29:26 10° ESE visible
02 May 9.5 01:54:20 25° SSE 01:56:19 26° SE 02:08:27 10° E visible
02 May 9.5 04:00:07 18° SW 04:10:01 44° SSE 04:27:32 10° ESE visible
03 May 9.8 00:57:51 17° SE 00:57:51 17° SE 01:04:53 10° ESE visible
03 May 9.2 03:03:37 27° SSW 03:09:33 38° SSE 03:25:16 10° E visible
04 May 9.2 02:07:08 29° SSE 02:09:33 31° SSE 02:22:44 10° E visible
04 May 9.5 04:12:55 14° WSW 04:23:37 45° S 04:41:07 10° ESE visible
